ANA5011 YBBN-YBCS

Flight info

Callsign ANA5011
Flight time 2h 10m
Altitude 18000
Route DCT BN Q67 CS DCT
Aircraft A20N/M-S/L

Departure

Time 2026-05-06 07:09
Airport Brisbane International Airport (YBBN)

Arrival

Time 2026-05-06 09:20
Airport Cairns International Airport (YBCS)
Time Latitude Longitude Altitude Speed Heading
2026-05-06 06:35 -27.38287 153.12293 21 ft 0 kts 260°
2026-05-06 06:54 -27.38285 153.12309 21 ft 3 kts 262°
2026-05-06 06:54 -27.38282 153.12331 23 ft 3 kts 265°
2026-05-06 06:55 -27.38281 153.12354 24 ft 3 kts 271°
2026-05-06 06:55 -27.38283 153.12377 22 ft 3 kts 281°
2026-05-06 06:55 -27.38286 153.12393 22 ft 1 kts 289°
2026-05-06 06:55 -27.38288 153.12397 22 ft 0 kts 290°
2026-05-06 06:58 -27.38284 153.12394 22 ft 1 kts 324°
2026-05-06 06:58 -27.38271 153.12387 23 ft 5 kts 334°
2026-05-06 06:59 -27.38226 153.12356 21 ft 10 kts 328°
2026-05-06 06:59 -27.38165 153.12350 21 ft 8 kts 25°
2026-05-06 06:59 -27.38155 153.12398 21 ft 6 kts 105°
2026-05-06 06:59 -27.38178 153.12445 21 ft 9 kts 121°
2026-05-06 07:00 -27.38237 153.12506 21 ft 14 kts 172°
2026-05-06 07:00 -27.38307 153.12565 22 ft 9 kts 73°
2026-05-06 07:00 -27.38259 153.12612 21 ft 11 kts 28°
2026-05-06 07:00 -27.38172 153.12661 21 ft 17 kts 27°
2026-05-06 07:01 -27.38057 153.12728 21 ft 21 kts 27°
2026-05-06 07:01 -27.37924 153.12803 22 ft 20 kts 19°
2026-05-06 07:01 -27.37829 153.12719 22 ft 18 kts 295°
2026-05-06 07:01 -27.37774 153.12593 22 ft 17 kts 297°
2026-05-06 07:02 -27.37721 153.12480 21 ft 15 kts 297°
2026-05-06 07:02 -27.37682 153.12394 21 ft 12 kts 296°
2026-05-06 07:02 -27.37647 153.12316 21 ft 11 kts 297°
2026-05-06 07:02 -27.37615 153.12247 21 ft 9 kts 297°
2026-05-06 07:03 -27.37586 153.12185 21 ft 9 kts 297°
2026-05-06 07:03 -27.37538 153.12080 21 ft 19 kts 297°
2026-05-06 07:03 -27.37477 153.11948 21 ft 18 kts 297°
2026-05-06 07:03 -27.37422 153.11824 21 ft 17 kts 297°
2026-05-06 07:04 -27.37369 153.11708 22 ft 16 kts 297°
2026-05-06 07:04 -27.37307 153.11613 22 ft 15 kts 334°
2026-05-06 07:04 -27.37216 153.11630 22 ft 13 kts 26°
2026-05-06 07:04 -27.37137 153.11675 21 ft 12 kts 26°
2026-05-06 07:05 -27.37063 153.11716 21 ft 12 kts 26°
2026-05-06 07:05 -27.36990 153.11758 21 ft 13 kts 27°
2026-05-06 07:05 -27.36894 153.11813 21 ft 18 kts 27°
2026-05-06 07:05 -27.36779 153.11880 20 ft 19 kts 26°
2026-05-06 07:06 -27.36663 153.11946 20 ft 18 kts 27°
2026-05-06 07:06 -27.36552 153.12009 21 ft 17 kts 27°
2026-05-06 07:06 -27.36449 153.12069 21 ft 16 kts 27°
2026-05-06 07:06 -27.36352 153.12125 21 ft 14 kts 28°
2026-05-06 07:07 -27.36276 153.12111 21 ft 11 kts 302°
2026-05-06 07:07 -27.36243 153.12039 22 ft 9 kts 297°
2026-05-06 07:07 -27.36237 153.12026 22 ft 0 kts 297°
2026-05-06 07:07 -27.36230 153.12012 23 ft 11 kts 297°
2026-05-06 07:08 -27.36204 153.11890 24 ft 19 kts 245°
2026-05-06 07:08 -27.36269 153.11844 25 ft 0 kts 205°
2026-05-06 07:08 -27.36326 153.11813 25 ft 32 kts 206°
2026-05-06 07:08 -27.36720 153.11591 23 ft 93 kts 207°
2026-05-06 07:09 -27.37466 153.11165 22 ft 147 kts 208°
2026-05-06 07:09 -27.38493 153.10580 209 ft 171 kts 204°
2026-05-06 07:09 -27.39541 153.09988 756 ft 170 kts 204°
2026-05-06 07:09 -27.40584 153.09387 1402 ft 166 kts 204°
2026-05-06 07:10 -27.41642 153.08780 1791 ft 177 kts 204°
2026-05-06 07:10 -27.42791 153.08124 1908 ft 194 kts 204°
2026-05-06 07:10 -27.44067 153.07396 1973 ft 216 kts 204°
2026-05-06 07:10 -27.45465 153.06597 2148 ft 233 kts 204°
2026-05-06 07:11 -27.46948 153.05727 2427 ft 245 kts 208°
2026-05-06 07:11 -27.48239 153.04493 2840 ft 251 kts 231°
2026-05-06 07:11 -27.48916 153.02668 3243 ft 259 kts 263°
2026-05-06 07:11 -27.48856 153.00628 4006 ft 261 kts 276°
2026-05-06 07:12 -27.48607 152.98597 4867 ft 260 kts 278°
2026-05-06 07:12 -27.48337 152.96587 5725 ft 256 kts 278°
2026-05-06 07:12 -27.48072 152.94645 6621 ft 252 kts 281°
2026-05-06 07:12 -27.47511 152.92793 7389 ft 252 kts 300°
2026-05-06 07:13 -27.46315 152.91352 8118 ft 256 kts 327°
2026-05-06 07:13 -27.44654 152.90618 8849 ft 260 kts 346°
2026-05-06 07:13 -27.42834 152.90487 9573 ft 266 kts
2026-05-06 07:13 -27.41095 152.91212 10239 ft 272 kts 33°
2026-05-06 07:14 -27.40156 152.92161 10661 ft 275 kts 48°
2026-05-06 07:14 -27.38631 152.94475 11519 ft 279 kts 53°
2026-05-06 07:14 -27.37531 152.96297 12178 ft 283 kts 53°
2026-05-06 07:14 -27.36386 152.98177 12511 ft 300 kts 53°
2026-05-06 07:15 -27.35580 152.99485 12683 ft 313 kts 52°
2026-05-06 07:15 -27.34298 153.01549 12947 ft 331 kts 52°
2026-05-06 07:15 -27.32927 153.03743 13215 ft 349 kts 52°
2026-05-06 07:15 -27.31490 153.06038 13473 ft 366 kts 52°
2026-05-06 07:16 -27.29994 153.08391 13727 ft 381 kts 50°
2026-05-06 07:16 -27.28167 153.10616 13994 ft 391 kts 40°
2026-05-06 07:16 -27.26117 153.12682 14390 ft 397 kts 38°
2026-05-06 07:16 -27.24020 153.14722 14841 ft 401 kts 38°
2026-05-06 07:17 -27.21849 153.16646 15307 ft 402 kts 29°
2026-05-06 07:17 -27.18450 153.18368 15954 ft 400 kts 15°
2026-05-06 07:17 -27.16693 153.19011 16292 ft 401 kts 13°
2026-05-06 07:17 -27.14015 153.19942 16781 ft 403 kts 13°
2026-05-06 07:18 -27.11319 153.20874 17272 ft 406 kts 13°
2026-05-06 07:18 -27.08639 153.21807 17740 ft 408 kts 13°
2026-05-06 07:18 -27.05921 153.22758 18021 ft 411 kts 12°
2026-05-06 07:18 -27.03131 153.23618 18061 ft 419 kts
2026-05-06 07:19 -27.00212 153.23962 18062 ft 423 kts 358°
2026-05-06 07:19 -26.97244 153.24058 18063 ft 424 kts 357°
2026-05-06 07:19 -26.94326 153.24110 18058 ft 424 kts 356°
2026-05-06 07:19 -26.91357 153.24161 18064 ft 424 kts 356°
2026-05-06 07:20 -26.88428 153.24216 18060 ft 424 kts 356°
2026-05-06 07:20 -26.85474 153.24275 18056 ft 424 kts 356°
2026-05-06 07:20 -26.82511 153.24337 18056 ft 424 kts 356°
2026-05-06 07:20 -26.79579 153.24399 18057 ft 424 kts 356°
2026-05-06 07:21 -26.76618 153.24463 18054 ft 424 kts 356°
2026-05-06 07:21 -26.73668 153.24526 18052 ft 423 kts 356°
2026-05-06 07:21 -26.70748 153.24565 18052 ft 422 kts 354°
2026-05-06 07:21 -26.67849 153.24181 18053 ft 417 kts 345°
2026-05-06 07:22 -26.65032 153.23435 18051 ft 415 kts 341°
2026-05-06 07:22 -26.62259 153.22511 18048 ft 414 kts 339°
2026-05-06 07:22 -26.59522 153.21512 18049 ft 413 kts 338°
2026-05-06 07:22 -26.56818 153.20504 18050 ft 413 kts 338°
2026-05-06 07:23 -26.54072 153.19491 18051 ft 413 kts 338°
2026-05-06 07:23 -26.51324 153.18499 18049 ft 413 kts 339°
2026-05-06 07:23 -26.48605 153.17536 18050 ft 413 kts 339°
2026-05-06 07:23 -26.45844 153.16572 18049 ft 413 kts 339°
2026-05-06 07:24 -26.43123 153.15631 18048 ft 413 kts 339°
2026-05-06 07:24 -26.40375 153.14685 18050 ft 413 kts 339°
2026-05-06 07:24 -26.37606 153.13733 18054 ft 413 kts 339°
2026-05-06 07:24 -26.34881 153.12796 18054 ft 413 kts 339°
2026-05-06 07:25 -26.32126 153.11849 18055 ft 413 kts 339°
2026-05-06 07:25 -26.29401 153.10811 18051 ft 411 kts 334°
2026-05-06 07:25 -26.26877 153.09337 18056 ft 408 kts 327°
2026-05-06 07:25 -26.24505 153.07653 18052 ft 407 kts 324°
2026-05-06 07:26 -26.22184 153.05848 18054 ft 407 kts 322°
2026-05-06 07:26 -26.19894 153.03980 18051 ft 406 kts 321°
2026-05-06 07:26 -26.17617 153.02085 18050 ft 406 kts 321°
2026-05-06 07:26 -26.15376 153.00216 18049 ft 407 kts 321°
2026-05-06 07:27 -26.13106 152.98329 18051 ft 407 kts 321°
2026-05-06 07:27 -26.10825 152.96450 18048 ft 407 kts 322°
2026-05-06 07:27 -26.08541 152.94591 18052 ft 407 kts 322°
2026-05-06 07:27 -26.06274 152.92763 18048 ft 407 kts 322°
2026-05-06 07:28 -26.03978 152.90921 18049 ft 407 kts 322°
2026-05-06 07:28 -26.01679 152.89079 18054 ft 407 kts 322°
2026-05-06 07:28 -25.97076 152.85395 18048 ft 407 kts 322°
2026-05-06 07:29 -25.94798 152.83571 18046 ft 407 kts 322°
2026-05-06 07:29 -25.92491 152.81723 18047 ft 407 kts 322°
2026-05-06 07:29 -25.90187 152.79878 18047 ft 406 kts 322°
2026-05-06 07:29 -25.87890 152.78040 18046 ft 406 kts 322°
2026-05-06 07:30 -25.85625 152.76227 18048 ft 406 kts 322°
2026-05-06 07:30 -25.83325 152.74388 18045 ft 406 kts 322°
2026-05-06 07:30 -25.81031 152.72555 18042 ft 406 kts 322°
2026-05-06 07:30 -25.78729 152.70717 18047 ft 406 kts 322°
2026-05-06 07:31 -25.76428 152.68879 18043 ft 406 kts 322°
2026-05-06 07:31 -25.74160 152.67069 18041 ft 406 kts 322°
2026-05-06 07:31 -25.71864 152.65237 18040 ft 406 kts 322°
2026-05-06 07:31 -25.69579 152.63416 18041 ft 406 kts 322°
2026-05-06 07:32 -25.67268 152.61574 18039 ft 406 kts 322°
2026-05-06 07:32 -25.64983 152.59755 18040 ft 406 kts 322°
2026-05-06 07:32 -25.62682 152.57923 18042 ft 406 kts 322°
2026-05-06 07:32 -25.60412 152.56117 18038 ft 406 kts 322°
2026-05-06 07:33 -25.58113 152.54288 18041 ft 406 kts 322°
2026-05-06 07:33 -25.55815 152.52461 18037 ft 406 kts 322°
2026-05-06 07:33 -25.53515 152.50633 18038 ft 406 kts 322°
2026-05-06 07:33 -25.51210 152.48802 18035 ft 406 kts 322°
2026-05-06 07:34 -25.48914 152.46980 18036 ft 406 kts 322°
2026-05-06 07:34 -25.46641 152.45176 18036 ft 406 kts 322°
2026-05-06 07:34 -25.44340 152.43352 18036 ft 406 kts 322°
2026-05-06 07:34 -25.42041 152.41529 18037 ft 406 kts 322°
2026-05-06 07:35 -25.39735 152.39702 18035 ft 406 kts 322°
2026-05-06 07:35 -25.37442 152.37886 18033 ft 406 kts 322°
2026-05-06 07:35 -25.35163 152.36082 18033 ft 406 kts 322°
2026-05-06 07:35 -25.32864 152.34263 18036 ft 406 kts 322°
2026-05-06 07:36 -25.30552 152.32435 18036 ft 406 kts 322°
2026-05-06 07:36 -25.28273 152.30634 18033 ft 406 kts 322°
2026-05-06 07:36 -25.25969 152.28813 18031 ft 406 kts 322°
2026-05-06 07:36 -25.23663 152.26993 18033 ft 407 kts 322°
2026-05-06 07:37 -25.21357 152.25173 18032 ft 406 kts 322°
2026-05-06 07:37 -25.19060 152.23360 18033 ft 406 kts 322°
2026-05-06 07:37 -25.16774 152.21557 18029 ft 406 kts 322°
2026-05-06 07:37 -25.14475 152.19745 18029 ft 406 kts 322°
2026-05-06 07:38 -25.12171 152.17930 18026 ft 406 kts 322°
2026-05-06 07:38 -25.09873 152.16121 18029 ft 406 kts 322°
2026-05-06 07:38 -25.07573 152.14310 18029 ft 406 kts 322°
2026-05-06 07:38 -25.05272 152.12501 18030 ft 406 kts 322°
2026-05-06 07:39 -25.02962 152.10686 18031 ft 406 kts 322°
2026-05-06 07:39 -25.00684 152.08899 18030 ft 406 kts 322°
2026-05-06 07:39 -24.98375 152.07089 18030 ft 406 kts 322°
2026-05-06 07:39 -24.96070 152.05284 18028 ft 406 kts 322°
2026-05-06 07:40 -24.93796 152.03503 18024 ft 406 kts 323°
2026-05-06 07:40 -24.91480 152.01692 18026 ft 406 kts 323°
2026-05-06 07:40 -24.89171 151.99887 18028 ft 406 kts 323°
2026-05-06 07:40 -24.86867 151.98085 18028 ft 406 kts 323°
2026-05-06 07:41 -24.84590 151.96307 18028 ft 406 kts 323°
2026-05-06 07:41 -24.82286 151.94507 18025 ft 406 kts 323°
2026-05-06 07:41 -24.79980 151.92707 18028 ft 406 kts 323°
2026-05-06 07:41 -24.77672 151.90905 18028 ft 406 kts 323°
2026-05-06 07:42 -24.75366 151.89107 18028 ft 406 kts 323°
2026-05-06 07:42 -24.73064 151.87312 18025 ft 406 kts 323°
2026-05-06 07:42 -24.70782 151.85534 18025 ft 406 kts 323°
2026-05-06 07:42 -24.68476 151.83738 18025 ft 406 kts 323°
2026-05-06 07:43 -24.66156 151.81932 18029 ft 406 kts 323°
2026-05-06 07:43 -24.63871 151.80155 18025 ft 406 kts 323°
2026-05-06 07:43 -24.61573 151.78368 18028 ft 406 kts 323°
2026-05-06 07:43 -24.59255 151.76566 18027 ft 405 kts 323°
2026-05-06 07:44 -24.56946 151.74772 18026 ft 406 kts 323°
2026-05-06 07:44 -24.54664 151.73000 18026 ft 406 kts 323°
2026-05-06 07:44 -24.52353 151.71206 18028 ft 406 kts 323°
2026-05-06 07:44 -24.50044 151.69414 18029 ft 406 kts 323°
2026-05-06 07:45 -24.47736 151.67625 18029 ft 406 kts 323°
2026-05-06 07:45 -24.45453 151.65855 18027 ft 406 kts 323°
2026-05-06 07:45 -24.43143 151.64066 18026 ft 406 kts 323°
2026-05-06 07:45 -24.40818 151.62265 18028 ft 406 kts 323°
2026-05-06 07:46 -24.38531 151.60494 18023 ft 406 kts 323°
2026-05-06 07:46 -24.36219 151.58706 18023 ft 406 kts 323°
2026-05-06 07:46 -24.33912 151.56921 18028 ft 406 kts 323°
2026-05-06 07:46 -24.31608 151.55140 18027 ft 406 kts 323°
2026-05-06 07:47 -24.29290 151.53348 18028 ft 406 kts 323°
2026-05-06 07:47 -24.26981 151.51564 18026 ft 406 kts 323°
2026-05-06 07:47 -24.24688 151.49794 18023 ft 406 kts 323°
2026-05-06 07:47 -24.22382 151.48014 18026 ft 406 kts 323°
2026-05-06 07:48 -24.20069 151.46230 18025 ft 406 kts 323°
2026-05-06 07:48 -24.17757 151.44448 18015 ft 406 kts 323°
2026-05-06 07:48 -24.15469 151.42685 18026 ft 405 kts 323°
2026-05-06 07:48 -24.13154 151.40901 18023 ft 406 kts 323°
2026-05-06 07:49 -24.10838 151.39118 18028 ft 406 kts 323°
2026-05-06 07:49 -24.08557 151.37363 18033 ft 406 kts 323°
2026-05-06 07:49 -24.06245 151.35584 18034 ft 406 kts 323°
2026-05-06 07:49 -24.03934 151.33807 18039 ft 406 kts 323°
2026-05-06 07:50 -24.01618 151.32027 18038 ft 406 kts 323°
2026-05-06 07:50 -23.99302 151.30248 18042 ft 406 kts 323°
2026-05-06 07:50 -23.96976 151.28462 18045 ft 406 kts 323°
2026-05-06 07:50 -23.94682 151.26701 18044 ft 406 kts 323°
2026-05-06 07:51 -23.92369 151.24927 18053 ft 406 kts 323°
2026-05-06 07:51 -23.90050 151.23149 18051 ft 406 kts 323°
2026-05-06 07:51 -23.87733 151.21372 18047 ft 406 kts 323°
2026-05-06 07:51 -23.85378 151.19652 18048 ft 407 kts 325°
2026-05-06 07:52 -23.82991 151.18048 18048 ft 407 kts 327°
2026-05-06 07:52 -23.80539 151.16476 18047 ft 407 kts 327°
2026-05-06 07:52 -23.78076 151.14926 18046 ft 407 kts 328°
2026-05-06 07:52 -23.75639 151.13395 18043 ft 408 kts 328°
2026-05-06 07:53 -23.73176 151.11841 18037 ft 408 kts 327°
2026-05-06 07:53 -23.70716 151.10279 18038 ft 408 kts 327°
2026-05-06 07:53 -23.68268 151.08718 18033 ft 408 kts 327°
2026-05-06 07:53 -23.65839 151.07163 18030 ft 408 kts 327°
2026-05-06 07:54 -23.63395 151.05596 18027 ft 408 kts 327°
2026-05-06 07:54 -23.60925 151.04012 18023 ft 408 kts 327°
2026-05-06 07:54 -23.58501 151.02458 18019 ft 408 kts 327°
2026-05-06 07:54 -23.56049 151.00888 18018 ft 408 kts 327°
2026-05-06 07:55 -23.53598 150.99318 18017 ft 408 kts 327°
2026-05-06 07:55 -23.51145 150.97749 18017 ft 408 kts 327°
2026-05-06 07:55 -23.48690 150.96179 18015 ft 408 kts 327°
2026-05-06 07:55 -23.46266 150.94630 18028 ft 408 kts 327°
2026-05-06 07:56 -23.43805 150.93058 18011 ft 408 kts 327°
2026-05-06 07:56 -23.41350 150.91491 18032 ft 408 kts 327°
2026-05-06 07:56 -23.38897 150.89925 18025 ft 409 kts 327°
2026-05-06 07:56 -23.36438 150.88356 18013 ft 409 kts 327°
2026-05-06 07:57 -23.33978 150.86787 18016 ft 409 kts 327°
2026-05-06 07:57 -23.31549 150.85239 18015 ft 409 kts 327°
2026-05-06 07:57 -23.29086 150.83670 18018 ft 409 kts 327°
2026-05-06 07:57 -23.26626 150.82103 18028 ft 410 kts 327°
2026-05-06 07:58 -23.24159 150.80533 18012 ft 410 kts 327°
2026-05-06 07:58 -23.21718 150.78979 18010 ft 410 kts 327°
2026-05-06 07:58 -23.19250 150.77410 18026 ft 410 kts 327°
2026-05-06 07:58 -23.16783 150.75842 18020 ft 410 kts 327°
2026-05-06 07:59 -23.14310 150.74270 18013 ft 410 kts 327°
2026-05-06 07:59 -23.11872 150.72722 18013 ft 410 kts 327°
2026-05-06 07:59 -23.09399 150.71152 18024 ft 410 kts 327°
2026-05-06 07:59 -23.06936 150.69589 18016 ft 410 kts 327°
2026-05-06 08:00 -23.04467 150.68022 18020 ft 410 kts 327°
2026-05-06 08:00 -23.01994 150.66453 18006 ft 411 kts 327°
2026-05-06 08:00 -23.00361 150.65418 18015 ft 411 kts 327°
2026-05-06 08:00 -22.97079 150.63339 18011 ft 411 kts 327°
2026-05-06 08:01 -22.94608 150.61773 18015 ft 411 kts 327°
2026-05-06 08:01 -22.92938 150.60716 18011 ft 411 kts 327°
2026-05-06 08:01 -22.90464 150.59150 18001 ft 411 kts 327°
2026-05-06 08:01 -22.88018 150.57604 18015 ft 411 kts 327°
2026-05-06 08:02 -22.85545 150.56042 18018 ft 411 kts 327°
2026-05-06 08:02 -22.83061 150.54472 18011 ft 411 kts 327°
2026-05-06 08:02 -22.80577 150.52903 18009 ft 412 kts 327°
2026-05-06 08:02 -22.78100 150.51338 18017 ft 412 kts 327°
2026-05-06 08:03 -22.75627 150.49777 18021 ft 412 kts 327°
2026-05-06 08:03 -22.73175 150.48230 18011 ft 412 kts 327°
2026-05-06 08:03 -22.70691 150.46661 18011 ft 412 kts 327°
2026-05-06 08:03 -22.68239 150.45114 18011 ft 412 kts 327°
2026-05-06 08:04 -22.65756 150.43549 18008 ft 412 kts 327°
2026-05-06 08:04 -22.63273 150.41986 18012 ft 412 kts 327°
2026-05-06 08:04 -22.60794 150.40426 18010 ft 412 kts 327°
2026-05-06 08:04 -22.58304 150.38859 18008 ft 412 kts 327°
2026-05-06 08:05 -22.55850 150.37315 18005 ft 413 kts 327°
2026-05-06 08:05 -22.53359 150.35748 18006 ft 413 kts 327°
2026-05-06 08:05 -22.50869 150.34183 18007 ft 413 kts 327°
2026-05-06 08:05 -22.48382 150.32621 18007 ft 413 kts 327°
2026-05-06 08:06 -22.45893 150.31058 18011 ft 413 kts 327°
2026-05-06 08:06 -22.43400 150.29493 18014 ft 413 kts 327°
2026-05-06 08:06 -22.40938 150.27948 18008 ft 414 kts 327°
2026-05-06 08:06 -22.38444 150.26383 18004 ft 414 kts 327°
2026-05-06 08:07 -22.35953 150.24821 18010 ft 414 kts 327°
2026-05-06 08:07 -22.33450 150.23253 18008 ft 414 kts 327°
2026-05-06 08:07 -22.30957 150.21691 18006 ft 414 kts 327°
2026-05-06 08:07 -22.28491 150.20147 18006 ft 414 kts 327°
2026-05-06 08:08 -22.26000 150.18576 18011 ft 414 kts 327°
2026-05-06 08:08 -22.23510 150.16971 18008 ft 414 kts 326°
2026-05-06 08:08 -22.21041 150.15357 18009 ft 414 kts 326°
2026-05-06 08:08 -22.18608 150.13759 18011 ft 414 kts 326°
2026-05-06 08:09 -22.16147 150.12142 18010 ft 414 kts 326°
2026-05-06 08:09 -22.13679 150.10522 18009 ft 414 kts 326°
2026-05-06 08:09 -22.11211 150.08906 18010 ft 414 kts 326°
2026-05-06 08:09 -22.08740 150.07291 18010 ft 414 kts 326°
2026-05-06 08:10 -22.06265 150.05675 18006 ft 414 kts 326°
2026-05-06 08:10 -22.03797 150.04066 18006 ft 414 kts 326°
2026-05-06 08:10 -22.01354 150.02474 18007 ft 414 kts 326°
2026-05-06 08:10 -21.98880 150.00862 18006 ft 414 kts 326°
2026-05-06 08:11 -21.96409 149.99253 18007 ft 415 kts 326°
2026-05-06 08:11 -21.93935 149.97643 18004 ft 415 kts 326°
2026-05-06 08:11 -21.91503 149.96061 18007 ft 415 kts 326°
2026-05-06 08:11 -21.89025 149.94449 18009 ft 415 kts 326°
2026-05-06 08:12 -21.86543 149.92835 18006 ft 415 kts 326°
2026-05-06 08:12 -21.84074 149.91231 18007 ft 416 kts 326°
2026-05-06 08:12 -21.81614 149.89632 18007 ft 416 kts 326°
2026-05-06 08:12 -21.79129 149.88019 18006 ft 416 kts 326°
2026-05-06 08:13 -21.76646 149.86407 18006 ft 416 kts 326°
2026-05-06 08:13 -21.74164 149.84796 18004 ft 416 kts 326°
2026-05-06 08:13 -21.71680 149.83185 18006 ft 417 kts 326°
2026-05-06 08:13 -21.69193 149.81573 18005 ft 417 kts 326°
2026-05-06 08:14 -21.66737 149.79981 18006 ft 417 kts 326°
2026-05-06 08:14 -21.64250 149.78370 18007 ft 417 kts 326°
2026-05-06 08:14 -21.61762 149.76759 18010 ft 417 kts 326°
2026-05-06 08:14 -21.59271 149.75147 18009 ft 417 kts 326°
2026-05-06 08:15 -21.56775 149.73532 18003 ft 418 kts 326°
2026-05-06 08:15 -21.54273 149.71914 18003 ft 418 kts 326°
2026-05-06 08:15 -21.51780 149.70302 18006 ft 418 kts 326°
2026-05-06 08:15 -21.49313 149.68708 18000 ft 418 kts 326°
2026-05-06 08:16 -21.46820 149.67097 18002 ft 418 kts 326°
2026-05-06 08:16 -21.44317 149.65481 18007 ft 418 kts 326°
2026-05-06 08:16 -21.41815 149.63866 18003 ft 419 kts 326°
2026-05-06 08:16 -21.39344 149.62272 18007 ft 419 kts 326°
2026-05-06 08:17 -21.36846 149.60661 18007 ft 419 kts 326°
2026-05-06 08:17 -21.34345 149.59049 18002 ft 419 kts 326°
2026-05-06 08:17 -21.31844 149.57437 18001 ft 419 kts 326°
2026-05-06 08:17 -21.29337 149.55822 17999 ft 419 kts 326°
2026-05-06 08:18 -21.26835 149.54211 17999 ft 419 kts 326°
2026-05-06 08:18 -21.24335 149.52603 18003 ft 419 kts 326°
2026-05-06 08:18 -21.21830 149.50991 18002 ft 419 kts 326°
2026-05-06 08:18 -21.19344 149.49392 17999 ft 419 kts 326°
2026-05-06 08:19 -21.16846 149.47786 17998 ft 419 kts 326°
2026-05-06 08:19 -21.14332 149.46171 17997 ft 420 kts 326°
2026-05-06 08:19 -21.11829 149.44563 17999 ft 420 kts 327°
2026-05-06 08:19 -21.09316 149.42950 17999 ft 420 kts 327°
2026-05-06 08:20 -21.06831 149.41354 17998 ft 420 kts 327°
2026-05-06 08:20 -21.04310 149.39737 17999 ft 420 kts 327°
2026-05-06 08:20 -21.01796 149.38125 17999 ft 420 kts 327°
2026-05-06 08:20 -20.99316 149.36535 17999 ft 421 kts 327°
2026-05-06 08:21 -20.96801 149.34923 17995 ft 421 kts 327°
2026-05-06 08:21 -20.94285 149.33311 18001 ft 421 kts 327°
2026-05-06 08:21 -20.91769 149.31701 17997 ft 421 kts 327°
2026-05-06 08:21 -20.89251 149.30089 17998 ft 421 kts 327°
2026-05-06 08:22 -20.86737 149.28481 17998 ft 421 kts 327°
2026-05-06 08:22 -20.84212 149.26866 17999 ft 422 kts 327°
2026-05-06 08:22 -20.81697 149.25258 18002 ft 422 kts 327°
2026-05-06 08:22 -20.79204 149.23665 17998 ft 422 kts 327°
2026-05-06 08:23 -20.76684 149.22055 17998 ft 422 kts 327°
2026-05-06 08:23 -20.74151 149.20438 17998 ft 422 kts 327°
2026-05-06 08:23 -20.71633 149.18831 17996 ft 422 kts 327°
2026-05-06 08:23 -20.69099 149.17214 17996 ft 422 kts 327°
2026-05-06 08:24 -20.66599 149.15619 17998 ft 422 kts 327°
2026-05-06 08:24 -20.64065 149.14004 18005 ft 422 kts 327°
2026-05-06 08:24 -20.61536 149.12392 17994 ft 422 kts 327°
2026-05-06 08:24 -20.59011 149.10784 17998 ft 422 kts 327°
2026-05-06 08:25 -20.56491 149.09179 17997 ft 422 kts 327°
2026-05-06 08:25 -20.53965 149.07571 17991 ft 421 kts 327°
2026-05-06 08:25 -20.51472 149.05985 18000 ft 421 kts 327°
2026-05-06 08:25 -20.48943 149.04376 17993 ft 421 kts 327°
2026-05-06 08:26 -20.46418 149.02771 17992 ft 421 kts 327°
2026-05-06 08:26 -20.43923 149.01185 17993 ft 422 kts 327°
2026-05-06 08:26 -20.41393 148.99578 17992 ft 422 kts 327°
2026-05-06 08:26 -20.38869 148.97975 17995 ft 422 kts 327°
2026-05-06 08:27 -20.36350 148.96353 17991 ft 422 kts 324°
2026-05-06 08:27 -20.33963 148.94542 17995 ft 421 kts 322°
2026-05-06 08:27 -20.31655 148.92689 17996 ft 421 kts 321°
2026-05-06 08:27 -20.29346 148.90767 17992 ft 421 kts 320°
2026-05-06 08:28 -20.27058 148.88829 17994 ft 421 kts 320°
2026-05-06 08:28 -20.24764 148.86872 17995 ft 421 kts 320°
2026-05-06 08:28 -20.22473 148.84917 17993 ft 421 kts 320°
2026-05-06 08:28 -20.20184 148.82968 17991 ft 421 kts 320°
2026-05-06 08:29 -20.17884 148.81017 17991 ft 422 kts 320°
2026-05-06 08:29 -20.15619 148.79099 17991 ft 422 kts 320°
2026-05-06 08:29 -20.13306 148.77144 17994 ft 422 kts 320°
2026-05-06 08:29 -20.10995 148.75195 17992 ft 422 kts 320°
2026-05-06 08:30 -20.08720 148.73276 17989 ft 422 kts 320°
2026-05-06 08:30 -20.06412 148.71330 17991 ft 422 kts 320°
2026-05-06 08:30 -20.04108 148.69388 17991 ft 422 kts 320°
2026-05-06 08:30 -20.01799 148.67442 17991 ft 422 kts 320°
2026-05-06 08:31 -19.99511 148.65516 17988 ft 422 kts 320°
2026-05-06 08:31 -19.97205 148.63574 17991 ft 422 kts 320°
2026-05-06 08:31 -19.94898 148.61632 17993 ft 423 kts 320°
2026-05-06 08:31 -19.92591 148.59690 17991 ft 423 kts 320°
2026-05-06 08:32 -19.90277 148.57745 17993 ft 423 kts 320°
2026-05-06 08:32 -19.87996 148.55827 17990 ft 423 kts 320°
2026-05-06 08:32 -19.85687 148.53886 17987 ft 423 kts 320°
2026-05-06 08:32 -19.83376 148.51944 17990 ft 423 kts 320°
2026-05-06 08:33 -19.81055 148.49995 17986 ft 423 kts 320°
2026-05-06 08:33 -19.78769 148.48076 17985 ft 423 kts 320°
2026-05-06 08:33 -19.76431 148.46114 17986 ft 423 kts 320°
2026-05-06 08:33 -19.74140 148.44192 17987 ft 424 kts 320°
2026-05-06 08:34 -19.71828 148.42253 17988 ft 424 kts 320°
2026-05-06 08:34 -19.67197 148.38372 17990 ft 424 kts 320°
2026-05-06 08:34 -19.64879 148.36431 17988 ft 424 kts 320°
2026-05-06 08:35 -19.62564 148.34493 17986 ft 424 kts 320°
2026-05-06 08:35 -19.60272 148.32575 17994 ft 424 kts 320°
2026-05-06 08:35 -19.57943 148.30626 17984 ft 424 kts 320°
2026-05-06 08:35 -19.55621 148.28683 17989 ft 424 kts 320°
2026-05-06 08:36 -19.53325 148.26764 17988 ft 424 kts 320°
2026-05-06 08:36 -19.51030 148.24846 17981 ft 424 kts 320°
2026-05-06 08:36 -19.48702 148.22902 17986 ft 424 kts 320°
2026-05-06 08:36 -19.46383 148.20965 17992 ft 424 kts 321°
2026-05-06 08:37 -19.44088 148.19050 17987 ft 424 kts 321°
2026-05-06 08:37 -19.41762 148.17109 17988 ft 424 kts 321°
2026-05-06 08:37 -19.39443 148.15174 17980 ft 424 kts 321°
2026-05-06 08:37 -19.37118 148.13235 17987 ft 424 kts 321°
2026-05-06 08:38 -19.34825 148.11324 17985 ft 424 kts 321°
2026-05-06 08:38 -19.32499 148.09386 17989 ft 424 kts 321°
2026-05-06 08:38 -19.30174 148.07449 17987 ft 425 kts 321°
2026-05-06 08:38 -19.27848 148.05513 17984 ft 425 kts 321°
2026-05-06 08:39 -19.25545 148.03596 17985 ft 425 kts 321°
2026-05-06 08:39 -19.23214 148.01657 17984 ft 425 kts 321°
2026-05-06 08:39 -19.20888 147.99722 17985 ft 425 kts 321°
2026-05-06 08:39 -19.18551 147.97779 17983 ft 425 kts 321°
2026-05-06 08:40 -19.16222 147.95844 17983 ft 425 kts 321°
2026-05-06 08:40 -19.13894 147.93910 17983 ft 426 kts 321°
2026-05-06 08:40 -19.11584 147.91992 17984 ft 426 kts 321°
2026-05-06 08:40 -19.09251 147.90055 17983 ft 426 kts 321°
2026-05-06 08:41 -19.06922 147.88122 17982 ft 426 kts 321°
2026-05-06 08:41 -19.04586 147.86185 17981 ft 426 kts 321°
2026-05-06 08:41 -19.02254 147.84251 17983 ft 426 kts 321°
2026-05-06 08:41 -18.99922 147.82318 17985 ft 426 kts 321°
2026-05-06 08:42 -18.97588 147.80384 17981 ft 426 kts 321°
2026-05-06 08:42 -18.95246 147.78444 17980 ft 426 kts 321°
2026-05-06 08:42 -18.92913 147.76512 17986 ft 426 kts 321°
2026-05-06 08:42 -18.90602 147.74599 17985 ft 426 kts 321°
2026-05-06 08:43 -18.88264 147.72665 17984 ft 427 kts 321°
2026-05-06 08:43 -18.85924 147.70730 17987 ft 427 kts 321°
2026-05-06 08:43 -18.83589 147.68799 17983 ft 427 kts 321°
2026-05-06 08:43 -18.81249 147.66865 17981 ft 427 kts 321°
2026-05-06 08:44 -18.78899 147.64924 17991 ft 427 kts 321°
2026-05-06 08:44 -18.76557 147.62989 17984 ft 427 kts 321°
2026-05-06 08:44 -18.74214 147.61055 17981 ft 427 kts 321°
2026-05-06 08:44 -18.71904 147.59148 17981 ft 427 kts 321°
2026-05-06 08:45 -18.69555 147.57211 17981 ft 428 kts 321°
2026-05-06 08:45 -18.67204 147.55272 17981 ft 428 kts 321°
2026-05-06 08:45 -18.64859 147.53338 17982 ft 428 kts 321°
2026-05-06 08:45 -18.62517 147.51408 17984 ft 428 kts 321°
2026-05-06 08:46 -18.60193 147.49494 17981 ft 428 kts 321°
2026-05-06 08:46 -18.57841 147.47557 17984 ft 428 kts 321°
2026-05-06 08:46 -18.55494 147.45625 17980 ft 428 kts 321°
2026-05-06 08:46 -18.53132 147.43681 17984 ft 428 kts 321°
2026-05-06 08:47 -18.50809 147.41770 17983 ft 428 kts 321°
2026-05-06 08:47 -18.48455 147.39835 17982 ft 429 kts 321°
2026-05-06 08:47 -18.46097 147.37896 17977 ft 429 kts 321°
2026-05-06 08:47 -18.43743 147.35962 17981 ft 429 kts 321°
2026-05-06 08:48 -18.41383 147.34023 17981 ft 429 kts 321°
2026-05-06 08:48 -18.39052 147.32109 17981 ft 429 kts 321°
2026-05-06 08:48 -18.36695 147.30174 17982 ft 429 kts 321°
2026-05-06 08:48 -18.35131 147.28891 17980 ft 429 kts 321°
2026-05-06 08:49 -18.32001 147.26323 17982 ft 429 kts 321°
2026-05-06 08:49 -18.31052 147.25545 17982 ft 429 kts 321°
2026-05-06 08:50 -18.29713 147.24447 17981 ft 429 kts 321°
2026-05-06 08:50 -18.27356 147.22515 17980 ft 429 kts 321°
2026-05-06 08:51 -18.25000 147.20585 17979 ft 429 kts 321°
2026-05-06 08:51 -18.22636 147.18648 17979 ft 429 kts 321°
2026-05-06 08:51 -18.20277 147.16716 17978 ft 429 kts 321°
2026-05-06 08:51 -18.17914 147.14782 17982 ft 429 kts 321°
2026-05-06 08:52 -18.15550 147.12848 17984 ft 430 kts 321°
2026-05-06 08:52 -18.13195 147.10921 17982 ft 430 kts 321°
2026-05-06 08:52 -18.10855 147.09008 17982 ft 430 kts 321°
2026-05-06 08:52 -18.08493 147.07078 17985 ft 430 kts 321°
2026-05-06 08:53 -18.06130 147.05146 17980 ft 430 kts 321°
2026-05-06 08:53 -18.03761 147.03212 17982 ft 430 kts 321°
2026-05-06 08:53 -18.01397 147.01281 17983 ft 430 kts 321°
2026-05-06 08:53 -17.99034 146.99352 17978 ft 430 kts 321°
2026-05-06 08:54 -17.96701 146.97449 17985 ft 430 kts 321°
2026-05-06 08:54 -17.94326 146.95511 17981 ft 430 kts 321°
2026-05-06 08:54 -17.91963 146.93585 17978 ft 430 kts 321°
2026-05-06 08:54 -17.89597 146.91656 17980 ft 431 kts 321°
2026-05-06 08:55 -17.87224 146.89722 17985 ft 430 kts 321°
2026-05-06 08:55 -17.84855 146.87793 17983 ft 431 kts 321°
2026-05-06 08:55 -17.82480 146.85859 17984 ft 431 kts 321°
2026-05-06 08:55 -17.80141 146.83956 17982 ft 431 kts 321°
2026-05-06 08:56 -17.77763 146.82021 17981 ft 431 kts 321°
2026-05-06 08:56 -17.75390 146.80092 17984 ft 431 kts 321°
2026-05-06 08:56 -17.73017 146.78164 17982 ft 431 kts 321°
2026-05-06 08:56 -17.70639 146.76233 17978 ft 432 kts 322°
2026-05-06 08:57 -17.68261 146.74302 17980 ft 432 kts 321°
2026-05-06 08:57 -17.65884 146.72373 17978 ft 432 kts 322°
2026-05-06 08:57 -17.63534 146.70467 17980 ft 432 kts 322°
2026-05-06 08:57 -17.61158 146.68540 17982 ft 432 kts 322°
2026-05-06 08:58 -17.58771 146.66605 17981 ft 432 kts 322°
2026-05-06 08:58 -17.56395 146.64680 17983 ft 432 kts 322°
2026-05-06 08:58 -17.54004 146.62743 17980 ft 432 kts 322°
2026-05-06 08:58 -17.51624 146.60816 17981 ft 432 kts 322°
2026-05-06 08:59 -17.49245 146.58889 17984 ft 432 kts 322°
2026-05-06 08:59 -17.46895 146.56988 17983 ft 432 kts 322°
2026-05-06 08:59 -17.44504 146.55053 17984 ft 432 kts 322°
2026-05-06 08:59 -17.42118 146.53124 17982 ft 433 kts 322°
2026-05-06 09:00 -17.39737 146.51199 17985 ft 433 kts 322°
2026-05-06 09:00 -17.37343 146.49264 17984 ft 433 kts 322°
2026-05-06 09:00 -17.34994 146.47366 17982 ft 433 kts 322°
2026-05-06 09:00 -17.32608 146.45439 17982 ft 433 kts 322°
2026-05-06 09:01 -17.30215 146.43507 17981 ft 433 kts 322°
2026-05-06 09:01 -17.27827 146.41579 17987 ft 433 kts 322°
2026-05-06 09:01 -17.25441 146.39655 17984 ft 433 kts 322°
2026-05-06 09:01 -17.23053 146.37729 17981 ft 433 kts 322°
2026-05-06 09:02 -17.20669 146.35807 17985 ft 433 kts 322°
2026-05-06 09:02 -17.18310 146.33906 17985 ft 431 kts 322°
2026-05-06 09:02 -17.15952 146.32006 17896 ft 425 kts 322°
2026-05-06 09:02 -17.13616 146.30124 17590 ft 422 kts 322°
2026-05-06 09:03 -17.11292 146.28252 17139 ft 420 kts 322°
2026-05-06 09:03 -17.08984 146.26395 16694 ft 418 kts 322°
2026-05-06 09:03 -17.06701 146.24557 16255 ft 407 kts 322°
2026-05-06 09:03 -17.04487 146.22776 15825 ft 396 kts 322°
2026-05-06 09:04 -17.02330 146.21043 15405 ft 386 kts 322°
2026-05-06 09:04 -17.00230 146.19354 14989 ft 376 kts 322°
2026-05-06 09:04 -16.98172 146.17701 14577 ft 368 kts 321°
2026-05-06 09:04 -16.96191 146.16108 14183 ft 360 kts 321°
2026-05-06 09:05 -16.94222 146.14527 13776 ft 353 kts 321°
2026-05-06 09:05 -16.92291 146.12976 13329 ft 347 kts 321°
2026-05-06 09:05 -16.90390 146.11449 12879 ft 341 kts 321°
2026-05-06 09:05 -16.88523 146.09951 12440 ft 335 kts 321°
2026-05-06 09:06 -16.86689 146.08479 12044 ft 329 kts 321°
2026-05-06 09:06 -16.84909 146.07050 11663 ft 322 kts 321°
2026-05-06 09:06 -16.83142 146.05632 11291 ft 317 kts 321°
2026-05-06 09:06 -16.81405 146.04239 10914 ft 311 kts 321°
2026-05-06 09:07 -16.79702 146.02874 10595 ft 305 kts 321°
2026-05-06 09:07 -16.78061 146.01559 10325 ft 297 kts 321°
2026-05-06 09:07 -16.76440 146.00260 10048 ft 290 kts 321°
2026-05-06 09:07 -16.74849 145.98986 9781 ft 283 kts 321°
2026-05-06 09:08 -16.73316 145.97760 9462 ft 272 kts 321°
2026-05-06 09:08 -16.71836 145.96575 9171 ft 265 kts 321°
2026-05-06 09:08 -16.70408 145.95379 8840 ft 261 kts 317°
2026-05-06 09:08 -16.69134 145.94073 8465 ft 260 kts 313°
2026-05-06 09:09 -16.67885 145.92680 8141 ft 263 kts 311°
2026-05-06 09:09 -16.66640 145.91258 7843 ft 265 kts 311°
2026-05-06 09:09 -16.65410 145.89842 7534 ft 266 kts 311°
2026-05-06 09:09 -16.64168 145.88403 7219 ft 267 kts 310°
2026-05-06 09:10 -16.63141 145.86820 6918 ft 260 kts 294°
2026-05-06 09:10 -16.62490 145.85092 6616 ft 253 kts 287°
2026-05-06 09:10 -16.61950 145.83369 6315 ft 248 kts 285°
2026-05-06 09:10 -16.61432 145.81662 5982 ft 243 kts 285°
2026-05-06 09:11 -16.60925 145.79995 5675 ft 239 kts 285°
2026-05-06 09:11 -16.60604 145.78338 5357 ft 233 kts 269°
2026-05-06 09:11 -16.60812 145.76712 5094 ft 223 kts 247°
2026-05-06 09:11 -16.61477 145.75302 4832 ft 210 kts 235°
2026-05-06 09:12 -16.62251 145.74020 4558 ft 207 kts 233°
2026-05-06 09:12 -16.63033 145.72772 4287 ft 207 kts 233°
2026-05-06 09:12 -16.63817 145.71516 4078 ft 203 kts 233°
2026-05-06 09:12 -16.64559 145.70315 4030 ft 191 kts 234°
2026-05-06 09:13 -16.65249 145.69194 4043 ft 183 kts 233°
2026-05-06 09:13 -16.65963 145.68137 4022 ft 165 kts 225°
2026-05-06 09:13 -16.66739 145.67380 3883 ft 146 kts 210°
2026-05-06 09:13 -16.67609 145.66904 3587 ft 138 kts 194°
2026-05-06 09:14 -16.68536 145.66697 3409 ft 135 kts 180°
2026-05-06 09:14 -16.69463 145.66740 3246 ft 133 kts 166°
2026-05-06 09:14 -16.70340 145.67015 3137 ft 133 kts 155°
2026-05-06 09:14 -16.71187 145.67391 3058 ft 134 kts 155°
2026-05-06 09:15 -16.72053 145.67785 2990 ft 134 kts 154°
2026-05-06 09:15 -16.72902 145.68173 2907 ft 131 kts 153°
2026-05-06 09:15 -16.73708 145.68585 2708 ft 127 kts 151°
2026-05-06 09:15 -16.74483 145.69010 2539 ft 128 kts 152°
2026-05-06 09:16 -16.75290 145.69405 2323 ft 127 kts 153°
2026-05-06 09:16 -16.76106 145.69781 2143 ft 127 kts 155°
2026-05-06 09:16 -16.76903 145.70142 2031 ft 127 kts 155°
2026-05-06 09:16 -16.77733 145.70477 1887 ft 128 kts 158°
2026-05-06 09:17 -16.78551 145.70819 1701 ft 127 kts 158°
2026-05-06 09:17 -16.79374 145.71160 1498 ft 127 kts 157°
2026-05-06 09:17 -16.80219 145.71507 1365 ft 131 kts 156°
2026-05-06 09:17 -16.81038 145.71889 1237 ft 128 kts 154°
2026-05-06 09:18 -16.81851 145.72260 1072 ft 127 kts 155°
2026-05-06 09:18 -16.82653 145.72629 873 ft 126 kts 156°
2026-05-06 09:18 -16.83466 145.72985 701 ft 127 kts 157°
2026-05-06 09:18 -16.84283 145.73334 560 ft 128 kts 156°
2026-05-06 09:19 -16.85092 145.73698 364 ft 126 kts 156°
2026-05-06 09:19 -16.85907 145.74064 214 ft 127 kts 157°
2026-05-06 09:19 -16.86709 145.74416 46 ft 127 kts 156°
2026-05-06 09:19 -16.87418 145.74735 21 ft 75 kts 156°
2026-05-06 09:20 -16.87690 145.74859 23 ft 32 kts 144°
2026-05-06 09:20 -16.87693 145.74986 23 ft 0 kts 66°
2026-05-06 09:21 -16.87687 145.75001 22 ft 5 kts 66°
2026-05-06 09:21 -16.87670 145.75042 20 ft 7 kts 66°
2026-05-06 09:21 -16.87651 145.75093 19 ft 8 kts 81°
2026-05-06 09:21 -16.87676 145.75139 20 ft 8 kts 152°
2026-05-06 09:22 -16.87724 145.75161 19 ft 7 kts 156°
2026-05-06 09:22 -16.87750 145.75191 20 ft 4 kts 95°
2026-05-06 09:22 -16.87742 145.75220 18 ft 5 kts 69°
2026-05-06 09:22 -16.87731 145.75247 19 ft 3 kts 66°
2026-05-06 09:23 -16.87724 145.75265 18 ft 3 kts 66°
2026-05-06 09:23 -16.87723 145.75267 20 ft 0 kts 66°